DELTA 1 DEB, 10872

Orbit data source: Space-Track

DELTA 1 DEB, 10872 is space debris in SSO originally from a launch on Thu, 29 Jul 1976 UTC launched from the Air Force Western Test Range (AFWTR). Debris objects in space refer to the collection of defunct objects orbiting the Earth. Examples of debris include non-operational satellites, rocket bodies, and fragments generated from explosions, collisions, or faulty payload assembly.

Loading next visibility...
Identifier
10872, 1976-077DA
Orbit
SSO
Country
Flag of USUS
Related business
Manufacturer
Unknown
Mission
Spacecraft
Bus & Motor
Unknown
Mass
Unknown
Launch date (UTC)
1976-07-29 (50 years ago)
Launch vehicle
Unknown
Launch site
Air Force Western Test Range (AFWTR)
Object type
Payload
Rocket body
Debris
Shape & HBR
Unknown shape, 0.1 m
Radar Cross Section
Medium (>0.1 m² and <1 m²)

Expand to show TLE details & history
Last TLE update: 4 days ago

TLE from 4 days ago
0 DELTA 1 DEB
1 10872U 76077DA  26169.48462678  .00000028  00000-0  59461-3 0  9992
2 10872 101.4729 175.3851 0100698  12.1691 142.4573 12.27163220232030
Epoch: 2026-06-18T11:37Z
TLE epoch observation values (Epoch: 2026-06-18T11:37:51.753Z)
Latitude
24.17646°
Longitude
-80.60538°
Altitude
1,627.799 km
Speed
7.031 km/s
True Right ascension
00h 02m 21s
True Declination
24° 03' 44"
Sunlit
Object was in daylight at epoch
Visualization orbit readout
Latitude
Unknown
Longitude
Unknown
Altitude
Unknown
Speed
Unknown
Apparent Right ascension
Unknown
Apparent Declination
Unknown
Sunlit
N/A
Visualization observer readout
Local Sidereal Time
05:24:08
Azimuth
Unknown
Elevation
Unknown
Doppler factor
Unknown
Orbital elements
Apogee altitude
1,638.98 km
Perigee altitude
1,479.128 km
Semi-major axis
7,937.191 km
Eccentricity
0.01007
Inclination
101.4729°
RAAN
175.3851°
Arg. of periapsis
12.1691°
True anomaly
143.15347°
Mean anomaly
142.4573°
Eccentric anomaly
142.80608°
Mean motion
3.06933 °/min
Orbital period
117.29 mins
BSTAR
0.00059461
Loading maneuver chart data...
Computing Atmospheric mass density...
Loading historical data...
Loading historical data...
Loading historical data...
Loading historical data...
Loading historical data...
Loading historical data...
Loading historical data...

Documentation

Showing up to 5 results
|